Wind_Speed
18 19 19 20 21 21 21 21 21 21 20 20 20 20 19 17 15 13 13 13 12 11 10 9 9 8 7 6 5 4 4 4 5 6 7 8 9 10 11 12 13 14 15 15
17 19 19 20 21 22 23 22 22 22 22 21 20 20 19 18 16 14 13 12 13 12 11 10 9 9 8 7 6 5 4 4 4 5 6 7 8 9 10 11 13 14 15 15
17 18 19 20 22 23 23 22 21 22 21 20 20 19 18 17 17 15 14 14 14 13 12 11 10 9 9 8 7 6 5 4 4 4 5 7 8 9 10 11 12 13 14 15
17 18 19 20 22 23 23 23 23 23 21 21 20 19 19 18 18 17 15 14 14 14 13 11 10 10 9 8 8 7 6 4 4 4 4 6 7 8 9 10 11 12 13 14
16 18 19 19 21 22 22 23 23 23 22 22 21 19 18 18 19 17 16 15 15 15 14 12 11 10 10 9 8 7 6 5 4 3 3 4 6 7 8 9 10 12 13 14
15 17 18 19 20 21 22 21 21 22 23 22 20 19 18 17 17 17 17 16 15 15 15 13 12 12 11 10 9 8 7 6 4 3 2 3 5 6 7 8 9 11 12 13
14 15 16 17 19 21 21 20 20 21 21 19 18 20 19 17 17 16 16 16 15 15 14 14 14 13 12 11 10 9 8 6 5 4 2 2 3 5 6 7 8 10 11 12
13 13 15 16 17 18 19 20 18 18 17 15 18 19 18 18 17 17 17 16 16 16 15 15 15 14 13 12 11 10 9 8 6 5 3 1 2 3 5 6 7 9 10 11
11 12 14 15 16 18 20 21 19 17 16 13 15 16 16 15 16 17 17 17 16 15 16 15 15 15 14 13 12 12 10 9 7 6 4 2 1 2 3 5 6 7 9 10
12 12 13 13 16 18 19 20 20 19 17 15 13 12 13 14 15 17 17 16 15 16 15 16 15 15 15 14 13 12 11 10 9 7 5 4 2 1 2 3 4 6 7 8
13 12 12 14 14 16 18 20 20 20 19 16 14 15 15 15 15 17 17 16 16 15 15 16 16 15 15 15 14 14 12 11 10 9 7 5 4 2 0 2 3 5 6 7
13 13 12 12 13 15 18 19 20 20 19 18 16 15 14 14 15 17 17 17 17 17 17 17 17 17 16 16 15 14 13 12 11 10 8 7 5 4 2 2 3 4 5 6
14 14 13 12 13 14 16 18 20 20 20 19 18 15 14 14 16 17 17 17 17 17 18 17 17 17 17 16 16 15 14 13 12 11 10 8 7 6 4 3 3 4 5 6
13 13 13 11 11 12 15 17 19 20 20 19 18 15 14 14 16 17 17 17 17 17 18 18 17 17 17 17 17 16 15 14 13 12 11 10 8 7 6 5 4 4 5 6
13 13 13 12 13 13 14 16 18 19 20 19 19 19 17 16 18 18 17 17 18 18 17 17 17 17 17 18 17 17 16 15 14 13 12 11 10 9 7 7 6 6 6 7
13 13 12 12 13 13 14 15 16 18 19 19 18 19 19 20 19 19 19 18 18 18 18 18 18 18 18 18 18 18 17 16 15 14 13 12 11 10 9 8 8 8 8 8
14 13 13 12 13 14 14 14 15 16 18 20 19 18 19 21 21 21 20 19 18 17 18 18 18 18 19 19 19 18 18 17 16 15 14 14 13 12 11 10 10 10 10 10
14 13 13 12 13 14 12 12 14 16 17 18 19 19 20 21 21 21 20 19 18 18 18 18 18 18 19 19 19 19 18 18 17 17 15 15 14 14 13 12 12 12 12 12
15 15 14 14 13 12 11 11 12 14 15 17 17 18 19 19 20 20 20 19 19 19 19 19 18 19 19 19 19 19 18 18 18 18 17 16 15 15 14 14 13 13 14 14
15 16 16 15 13 12 11 11 11 12 14 16 17 17 18 19 20 19 20 20 21 20 20 19 19 19 19 19 19 19 19 19 19 18 18 17 17 16 15 15 15 15 16 16
16 16 16 15 13 12 12 12 12 13 12 14 15 16 18 18 18 19 20 21 22 21 21 20 20 20 20 20 20 20 20 19 19 19 19 18 17 17 17 17 17 17 18 18
16 16 17 16 15 13 13 14 15 14 13 15 16 17 18 19 19 20 20 20 21 21 21 21 21 21 21 21 22 22 21 20 20 20 19 19 19 19 19 19 19 19 20 20
18 18 18 18 18 16 16 16 16 16 16 16 17 18 19 19 19 19 20 20 21 21 21 21 21 21 22 22 23 23 23 22 22 21 21 20 20 20 20 21 21 22 22 23
21 21 20 20 20 20 20 19 19 18 18 18 18 18 19 18 18 19 19 20 21 21 22 21 22 22 22 23 24 24 24 24 23 23 22 22 22 22 22 23 23 24 24 25
24 24 22 22 22 22 22 21 20 20 19 18 18 18 19 19 19 19 19 19 20 20 21 21 22 22 23 24 24 25 25 25 25 24 24 24 24 24 24 24 25 25 26 27
25 24 24 24 24 23 23 22 21 21 20 19 19 19 20 20 20 20 20 20 20 20 21 22 22 23 23 24 25 25 26 26 26 26 26 26 26 26 26 26 27 27 28 29
Wind_Direction
235 233 230 227 225 223 223 224 225 228 227 226 229 230 233 236 232 227 225 213 212 209 200 194 190 185 181 177 169 151 126 94 71 55 45 42 39 36 34 34 35 34 32 32
234 231 228 226 223 221 222 224 224 226 227 226 229 231 232 235 230 226 222 214 208 204 198 196 190 187 183 178 170 159 141 110 82 63 52 47 44 40 38 38 37 36 34 34
233 229 227 227 225 224 224 223 222 224 228 229 228 229 231 233 228 222 216 212 207 200 197 195 190 188 184 180 174 167 149 123 96 76 61 52 46 44 42 40 38 37 36 36
231 230 229 226 225 224 222 221 222 225 225 226 225 229 228 225 223 219 215 211 207 201 194 194 194 190 184 181 178 170 159 143 119 93 69 56 48 45 44 42 40 38 37 37
233 230 229 226 224 222 222 223 222 224 226 226 225 232 232 230 222 215 213 213 210 205 198 196 197 191 186 183 179 175 169 159 140 114 84 61 51 48 45 42 41 40 39 38
236 232 230 228 224 221 221 222 223 226 228 229 226 231 233 235 222 216 214 211 210 205 200 200 198 194 191 187 183 180 177 172 161 144 114 71 55 51 46 44 42 41 40 38
234 233 230 226 225 224 219 219 221 223 228 232 227 232 232 229 221 217 214 211 210 207 203 203 199 196 193 191 190 188 187 185 181 170 151 90 62 54 49 46 43 41 39 37
235 233 229 228 227 226 219 217 216 219 227 231 227 234 231 228 223 218 213 210 213 209 207 204 202 200 198 197 197 196 194 195 194 187 177 134 81 61 55 48 42 38 37 36
230 233 227 226 223 222 217 215 212 212 216 221 226 231 230 228 221 216 215 213 214 212 209 206 203 202 201 202 202 201 200 202 202 198 193 176 130 80 62 50 40 35 32 33
227 229 228 226 223 219 218 215 211 212 212 220 222 224 232 223 220 219 216 215 216 213 212 209 205 205 204 205 204 204 205 207 209 207 204 198 188 139 71 46 31 26 28 29
225 227 224 221 222 219 216 215 214 214 215 217 221 222 224 225 221 220 218 219 216 214 217 213 209 211 208 207 208 207 208 209 212 211 210 208 210 210 215 15 11 12 16 18
219 222 219 220 219 219 217 216 215 213 214 218 222 221 213 218 219 218 218 216 217 217 217 215 213 211 210 210 210 211 212 213 214 214 216 218 220 227 251 307 339 353 2 7
218 218 216 219 220 222 221 216 216 215 212 214 219 223 213 214 219 219 219 217 218 218 217 217 212 211 211 211 212 213 215 217 218 218 220 223 227 235 250 275 303 328 343 352
219 219 219 219 226 227 223 220 221 218 214 213 217 221 218 221 222 221 221 220 221 221 219 215 213 214 214 213 213 214 217 220 220 220 223 227 233 240 249 262 282 304 323 335
223 223 220 223 227 228 226 222 222 222 218 218 216 214 215 221 220 221 221 219 220 220 218 216 217 218 216 215 216 218 220 222 223 224 227 231 237 243 249 259 271 287 304 318
226 229 228 225 226 229 229 227 226 221 218 217 213 211 214 219 221 221 222 222 221 219 218 219 219 218 218 218 219 220 223 225 227 229 232 236 240 245 250 259 269 280 292 303
225 225 228 226 223 227 228 227 228 227 224 220 217 213 217 220 223 224 224 224 222 218 219 222 220 219 219 220 221 222 225 228 230 233 236 240 243 247 252 260 269 278 287 295
228 226 230 229 226 234 233 231 231 228 225 223 220 220 223 226 226 227 226 225 223 222 222 222 222 223 223 224 225 226 228 231 233 236 239 244 247 251 256 261 268 276 284 291
229 227 228 231 233 238 230 228 227 225 226 226 224 222 225 224 226 225 224 225 225 225 225 226 226 226 226 227 228 230 232 233 236 239 242 247 250 253 257 261 268 275 282 289
231 227 225 228 232 230 228 223 223 229 231 228 226 223 223 226 227 226 226 228 229 228 227 228 228 228 229 230 232 234 235 238 240 241 246 249 251 254 259 264 269 275 282 287
230 228 227 227 233 236 229 220 224 230 230 227 224 223 224 226 226 227 229 231 229 229 230 231 231 232 233 234 235 236 238 240 242 245 248 252 254 257 261 266 272 277 282 286
234 234 233 233 234 237 233 227 228 233 236 232 228 226 226 226 225 227 228 229 229 230 231 231 232 234 235 236 236 238 239 240 243 246 250 253 256 260 263 268 273 278 282 286
233 236 237 234 234 236 239 238 235 235 239 239 233 229 228 229 229 230 232 232 230 230 232 233 234 235 237 238 238 239 241 242 245 248 251 255 259 262 266 270 274 278 282 285
232 235 235 235 235 236 239 239 237 238 240 239 235 235 232 233 233 234 236 236 236 235 233 234 235 237 239 240 240 240 242 244 246 250 254 257 261 265 269 272 276 279 282 285
234 235 235 238 239 241 241 240 240 240 240 239 237 236 237 238 238 238 239 239 238 238 238 238 238 239 241 242 241 242 244 246 249 252 256 259 263 267 270 274 277 280 283 286
236 236 237 240 241 243 242 241 240 240 240 241 241 240 239 239 239 240 241 241 239 238 239 238 238 240 242 244 244 245 247 249 252 255 259 262 265 268 271 274 277 280 283 286
Height
5822 5825 5827 5830 5832 5836 5838 5841 5844 5847 5849 5852 5854 5857 5860 5862 5864 5866 5868 5870 5872 5874 5876 5878 5880 5882 5883 5884 5885 5886 5886 5886 5887 5887 5886 5886 5885 5883 5882 5880 5878 5876 5874 5871
5819 5821 5824 5826 5829 5832 5835 5838 5841 5843 5846 5849 5852 5854 5857 5860 5862 5864 5866 5868 5871 5873 5875 5877 5879 5881 5883 5884 5885 5886 5887 5887 5887 5887 5887 5887 5886 5885 5883 5882 5880 5878 5876 5874
5816 5819 5820 5823 5826 5829 5832 5835 5838 5841 5843 5846 5849 5851 5854 5857 5859 5862 5865 5867 5869 5872 5874 5877 5879 5880 5882 5884 5885 5886 5887 5887 5888 5888 5888 5888 5887 5886 5885 5883 5882 5880 5878 5876
5812 5815 5817 5820 5822 5825 5829 5832 5835 5838 5841 5844 5847 5849 5851 5854 5857 5860 5863 5865 5867 5870 5873 5875 5878 5880 5881 5883 5885 5886 5887 5888 5888 5889 5889 5889 5888 5887 5886 5885 5884 5882 5880 5878
5809 5812 5814 5817 5820 5822 5826 5829 5832 5835 5838 5841 5843 5846 5849 5851 5854 5858 5861 5864 5866 5869 5871 5874 5877 5879 5881 5883 5884 5886 5887 5888 5889 5889 5890 5889 5889 5888 5887 5886 5885 5884 5882 5880
5807 5809 5812 5814 5817 5820 5823 5826 5829 5832 5835 5838 5841 5844 5847 5849 5852 5856 5859 5862 5864 5867 5870 5873 5876 5878 5880 5882 5884 5885 5887 5888 5889 5889 5890 5890 5890 5889 5889 5888 5887 5885 5884 5882
5805 5807 5809 5811 5814 5818 5821 5825 5828 5830 5833 5836 5839 5841 5845 5847 5850 5853 5857 5860 5863 5866 5869 5872 5874 5877 5879 5881 5883 5885 5886 5888 5889 5890 5890 5891 5890 5890 5890 5889 5888 5887 5885 5884
5803 5805 5807 5810 5813 5816 5819 5823 5827 5830 5832 5835 5837 5838 5843 5845 5848 5851 5855 5858 5861 5864 5867 5870 5873 5875 5878 5880 5882 5884 5886 5887 5888 5889 5890 5891 5891 5891 5890 5890 5889 5888 5887 5885
5802 5804 5806 5808 5810 5813 5816 5820 5824 5827 5829 5832 5834 5837 5840 5842 5845 5849 5853 5856 5859 5862 5865 5868 5871 5874 5876 5879 5881 5883 5885 5886 5888 5889 5890 5891 5891 5891 5891 5891 5890 5889 5888 5887
5800 5802 5804 5806 5808 5811 5814 5818 5821 5824 5828 5830 5833 5835 5838 5841 5844 5847 5850 5854 5857 5860 5863 5866 5869 5872 5875 5877 5879 5881 5883 5885 5887 5888 5889 5890 5891 5891 5891 5891 5891 5890 5889 5888
5798 5800 5802 5805 5807 5810 5813 5816 5819 5822 5826 5829 5831 5835 5836 5839 5843 5846 5849 5852 5855 5857 5861 5864 5867 5870 5873 5875 5878 5880 5882 5884 5886 5887 5889 5890 5891 5891 5891 5891 5891 5890 5890 5889
5797 5799 5800 5803 5805 5808 5810 5813 5817 5821 5824 5826 5829 5834 5833 5837 5841 5844 5847 5850 5852 5855 5858 5862 5865 5868 5871 5873 5876 5878 5881 5883 5884 5886 5888 5889 5890 5890 5891 5891 5891 5891 5890 5889
5796 5798 5800 5801 5805 5806 5808 5811 5814 5818 5821 5823 5826 5831 5831 5835 5838 5841 5844 5847 5850 5853 5856 5859 5862 5865 5868 5871 5874 5876 5879 5881 5883 5885 5886 5888 5889 5889 5890 5890 5890 5890 5890 5889
5794 5796 5799 5801 5802 5804 5806 5809 5812 5815 5818 5821 5824 5827 5829 5832 5835 5839 5842 5845 5848 5851 5854 5857 5860 5863 5866 5869 5871 5874 5877 5879 5881 5883 5884 5886 5887 5888 5889 5889 5889 5889 5889 5888
5793 5794 5796 5798 5800 5801 5804 5806 5809 5812 5815 5818 5821 5823 5827 5829 5833 5836 5839 5842 5845 5848 5851 5854 5857 5860 5863 5866 5869 5871 5874 5876 5878 5880 5882 5884 5885 5886 5887 5887 5888 5888 5887 5887
5791 5793 5795 5796 5798 5799 5802 5804 5806 5809 5812 5815 5818 5821 5824 5826 5829 5833 5836 5839 5842 5845 5848 5852 5854 5857 5860 5863 5866 5869 5871 5874 5876 5878 5880 5881 5883 5884 5885 5885 5885 5886 5886 5885
5789 5791 5793 5795 5796 5797 5800 5802 5804 5807 5810 5813 5815 5819 5821 5824 5827 5830 5833 5837 5839 5842 5846 5849 5851 5854 5857 5860 5863 5866 5868 5871 5873 5875 5877 5878 5880 5881 5882 5882 5883 5883 5883 5883
5787 5789 5790 5792 5795 5796 5800 5800 5802 5804 5807 5810 5812 5815 5817 5820 5824 5827 5830 5834 5837 5840 5843 5846 5849 5851 5854 5857 5860 5862 5865 5867 5870 5872 5874 5875 5877 5878 5879 5879 5880 5880 5880 5880
5785 5786 5789 5790 5792 5793 5797 5798 5799 5802 5804 5807 5809 5812 5815 5817 5820 5824 5827 5830 5834 5837 5840 5843 5845 5848 5851 5854 5857 5859 5862 5864 5866 5868 5870 5872 5873 5874 5875 5876 5876 5876 5876 5876
5782 5784 5787 5788 5789 5792 5795 5796 5797 5801 5802 5804 5806 5809 5811 5814 5818 5821 5824 5827 5830 5833 5836 5839 5842 5845 5847 5850 5853 5855 5858 5860 5862 5864 5866 5868 5869 5870 5871 5872 5872 5872 5872 5872
5779 5781 5783 5785 5787 5789 5792 5793 5796 5799 5801 5802 5803 5806 5809 5811 5815 5818 5820 5822 5826 5829 5832 5835 5838 5841 5843 5846 5849 5851 5854 5856 5858 5860 5862 5863 5864 5866 5866 5867 5867 5867 5867 5867
5776 5778 5781 5783 5785 5788 5789 5791 5793 5795 5797 5798 5800 5803 5805 5808 5810 5813 5816 5818 5821 5825 5827 5830 5833 5836 5839 5841 5844 5847 5849 5851 5853 5855 5857 5858 5860 5861 5861 5862 5862 5862 5862 5862
5772 5775 5777 5780 5783 5784 5785 5787 5790 5792 5794 5796 5798 5800 5802 5804 5807 5810 5813 5815 5818 5820 5823 5826 5828 5831 5834 5836 5839 5842 5844 5846 5848 5850 5852 5853 5854 5855 5856 5856 5856 5856 5856 5855
5768 5771 5773 5776 5777 5779 5781 5783 5786 5788 5790 5792 5794 5796 5799 5801 5804 5806 5808 5811 5814 5816 5819 5821 5824 5827 5829 5831 5834 5836 5839 5841 5843 5844 5846 5847 5848 5849 5850 5850 5850 5850 5849 5849
5763 5766 5769 5771 5773 5775 5777 5779 5782 5784 5786 5789 5791 5793 5795 5797 5800 5802 5804 5807 5809 5812 5814 5816 5819 5822 5824 5826 5828 5831 5833 5835 5837 5838 5840 5841 5842 5843 5843 5843 5843 5843 5842 5841
5758 5761 5764 5766 5768 5770 5772 5775 5777 5779 5782 5784 5786 5789 5791 5793 5796 5798 5800 5802 5804 5807 5809 5811 5814 5816 5818 5820 5822 5825 5826 5828 5830 5832 5833 5834 5835 5835 5836 5836 5835 5835 5834 5833